User: anonymous   Login
Location: Fairmont
(43.6520°N, 94.4610°W)
Time: 19:01:13
(UTC-05:00)
Language:

Cosmos-2242 - Orbit

View from above orbital plane
View from above orbital plane
View from above satellite
View from above satellite

Ground track
Ground track

The orbit data is extracted from the following two-line orbital elements,

1 22626U 93024A   16270.52741031  .00000324  00000-0  32955-4 0  9992
2 22626  82.5197 290.3509 0017505 276.5033  83.4192 14.87525190266951
Epoch (UTC): 26 September 2016 12:39:28
Eccentricity: 0.0017505
inclination: 82.5197°
perigee height: 593 km
apogee height: 618 km
right ascension of ascending node: 290.3509°
argument of perigee: 276.5033°
revolutions per day: 14.87525190
mean anomaly at epoch: 83.4192°
orbit number at epoch: 26695

The dashed part of the orbit path shows where the satellite is in the earth's shadow,  

DLR